Simultaneous Nadir Overpasses (SNOs) Predictions

Prediction of SNOs between GOES-15 and FY3D Satellite Orbit:

Table of predicted SNOs for the next 14.0 days since TLE Epoch: 8/12/2023
Index Date Time (GOES-15) GOES-15 Lat,Lon FY3D Lat,Lon Distance(km) Time Diff (sec)
1 08/12/2023 04:26:29 -0.44, 149.01 -1.02, 146.33 305.18 80
2 08/13/2023 04:05:30 -0.43, 148.00 0.22, 150.73 312.43 80
3 08/14/2023 16:30:34 0.43, 146.48 0.71, 145.30 135.61 80
4 08/15/2023 16:09:35 0.42, 145.47 -0.54, 149.70 481.94 80
5 08/17/2023 04:32:09 -0.42, 143.87 -0.36, 144.22 39.54 80
6 08/18/2023 16:57:14 0.43, 142.34 1.22, 138.77 406.59 80
7 08/19/2023 16:36:14 0.42, 141.32 0.03, 143.18 211.86 80
8 08/21/2023 05:01:29 -0.42, 139.71 -0.86, 137.68 230.19 80
9 08/22/2023 04:40:28 -0.42, 138.68 0.33, 142.10 389.22 80
10 08/23/2023 17:05:34 0.42, 137.14 0.51, 136.65 55.94 80
11 08/25/2023 05:28:08 -0.41, 135.54 -1.40, 131.16 498.74 80
